Year,Month,Day,Hour,Minute,Value (Times are PST for temperature in C)
2009,07,26,00,00,16.10
2009,07,26,00,01,16.10
2009,07,26,00,02,16.10
2009,07,26,00,03,16.10
2009,07,26,00,04,16.20
2009,07,26,00,05,16.20
2009,07,26,00,06,16.30
2009,07,26,00,07,16.30
2009,07,26,00,08,16.40
2009,07,26,00,09,16.40
2009,07,26,00,10,16.50
2009,07,26,00,11,16.70
2009,07,26,00,12,16.70
2009,07,26,00,13,16.80
2009,07,26,00,14,16.80
2009,07,26,00,15,16.90
2009,07,26,00,16,16.90
2009,07,26,00,17,16.90
2009,07,26,00,18,16.90
2009,07,26,00,19,16.90
2009,07,26,00,20,16.90
2009,07,26,00,21,16.90
2009,07,26,00,22,17.00
2009,07,26,00,23,17.00
2009,07,26,00,24,17.00
2009,07,26,00,25,17.00
2009,07,26,00,26,17.00
2009,07,26,00,27,17.00
2009,07,26,00,28,17.00
2009,07,26,00,29,17.10
2009,07,26,00,30,17.10
2009,07,26,00,31,17.10
2009,07,26,00,32,17.10
2009,07,26,00,33,17.10
2009,07,26,00,34,17.10
2009,07,26,00,35,17.10
2009,07,26,00,36,17.20
2009,07,26,00,37,17.20
2009,07,26,00,38,17.20
2009,07,26,00,39,17.20
2009,07,26,00,40,17.20
2009,07,26,00,41,17.30
2009,07,26,00,42,17.30
2009,07,26,00,43,17.30
2009,07,26,00,44,17.30
2009,07,26,00,45,17.30
2009,07,26,00,46,17.30
2009,07,26,00,47,17.30
2009,07,26,00,48,17.30
2009,07,26,00,49,17.30
2009,07,26,00,50,17.30
2009,07,26,00,51,17.30
2009,07,26,00,52,17.30
2009,07,26,00,53,17.30
2009,07,26,00,54,17.30
2009,07,26,00,55,17.30
2009,07,26,00,56,17.30
2009,07,26,00,57,17.30
2009,07,26,00,58,17.30
2009,07,26,00,59,17.20
2009,07,26,01,00,17.20
2009,07,26,01,01,17.20
2009,07,26,01,02,17.20
2009,07,26,01,03,17.10
2009,07,26,01,04,17.10
2009,07,26,01,05,17.20
2009,07,26,01,06,17.20
2009,07,26,01,07,17.20
2009,07,26,01,08,17.20
2009,07,26,01,09,17.20
2009,07,26,01,10,17.20
2009,07,26,01,11,17.20
2009,07,26,01,12,17.20
2009,07,26,01,13,17.20
2009,07,26,01,14,17.20
2009,07,26,01,15,17.20
2009,07,26,01,16,17.20
2009,07,26,01,17,17.10
2009,07,26,01,18,17.10
2009,07,26,01,19,17.10
2009,07,26,01,20,17.10
2009,07,26,01,21,17.10
2009,07,26,01,22,17.10
2009,07,26,01,23,17.10
2009,07,26,01,24,17.10
2009,07,26,01,25,17.10
2009,07,26,01,26,17.10
2009,07,26,01,27,17.20
2009,07,26,01,28,17.20
2009,07,26,01,29,17.20
2009,07,26,01,30,17.20
2009,07,26,01,31,17.20
2009,07,26,01,32,17.20
2009,07,26,01,33,17.20
2009,07,26,01,34,17.20
2009,07,26,01,35,17.20
2009,07,26,01,36,17.20
2009,07,26,01,37,17.30
2009,07,26,01,38,17.30
2009,07,26,01,39,17.30
2009,07,26,01,40,17.30
2009,07,26,01,41,17.30
2009,07,26,01,42,17.30
2009,07,26,01,43,17.30
2009,07,26,01,44,17.30
2009,07,26,01,45,17.30
2009,07,26,01,46,17.30
2009,07,26,01,47,17.30
2009,07,26,01,48,17.30
2009,07,26,01,49,17.30
2009,07,26,01,50,17.30
2009,07,26,01,51,17.30
2009,07,26,01,52,17.40
2009,07,26,01,53,17.40
2009,07,26,01,54,17.40
2009,07,26,01,55,17.40
2009,07,26,01,56,17.40
2009,07,26,01,57,17.50
2009,07,26,01,58,17.50
2009,07,26,01,59,17.50
2009,07,26,02,00,17.50
2009,07,26,02,01,17.50
2009,07,26,02,02,17.50
2009,07,26,02,03,17.50
2009,07,26,02,04,17.40
2009,07,26,02,05,17.40
2009,07,26,02,06,17.40
2009,07,26,02,07,17.40
2009,07,26,02,08,17.40
2009,07,26,02,09,17.40
2009,07,26,02,10,17.40
2009,07,26,02,11,17.40
2009,07,26,02,12,17.40
2009,07,26,02,13,17.50
2009,07,26,02,14,17.50
2009,07,26,02,15,17.50
2009,07,26,02,16,17.60
2009,07,26,02,17,17.60
2009,07,26,02,18,17.60
2009,07,26,02,19,17.60
2009,07,26,02,20,17.60
2009,07,26,02,21,17.70
2009,07,26,02,22,17.70
2009,07,26,02,23,17.70
2009,07,26,02,24,17.70
2009,07,26,02,25,17.80
2009,07,26,02,26,17.80
2009,07,26,02,27,17.80
2009,07,26,02,28,17.90
2009,07,26,02,29,17.90
2009,07,26,02,30,17.90
2009,07,26,02,31,17.90
2009,07,26,02,32,17.90
2009,07,26,02,33,18.00
2009,07,26,02,34,18.10
2009,07,26,02,35,18.10
2009,07,26,02,36,18.10
2009,07,26,02,37,18.20
2009,07,26,02,38,18.20
2009,07,26,02,39,18.20
2009,07,26,02,40,18.20
2009,07,26,02,41,18.20
2009,07,26,02,42,18.20
2009,07,26,02,43,18.20
2009,07,26,02,44,18.20
2009,07,26,02,45,18.20
2009,07,26,02,46,18.20
2009,07,26,02,47,18.20
2009,07,26,02,48,18.20
2009,07,26,02,49,18.20
2009,07,26,02,50,18.20
2009,07,26,02,51,18.20
2009,07,26,02,52,18.20
2009,07,26,02,53,18.20
2009,07,26,02,54,18.20
2009,07,26,02,55,18.20
2009,07,26,02,56,18.20
2009,07,26,02,57,18.20
2009,07,26,02,58,18.20
2009,07,26,02,59,18.30
2009,07,26,03,00,18.30
2009,07,26,03,01,18.30
2009,07,26,03,02,18.30
2009,07,26,03,03,18.30
2009,07,26,03,04,18.30
2009,07,26,03,05,18.30
2009,07,26,03,06,18.30
2009,07,26,03,07,18.30
2009,07,26,03,08,18.40
2009,07,26,03,09,18.40
2009,07,26,03,10,18.40
2009,07,26,03,11,18.40
2009,07,26,03,12,18.40
2009,07,26,03,13,18.40
2009,07,26,03,14,18.40
2009,07,26,03,15,18.40
2009,07,26,03,16,18.40
2009,07,26,03,17,18.50
2009,07,26,03,18,18.50
2009,07,26,03,19,18.50
2009,07,26,03,20,18.50
2009,07,26,03,21,18.50
2009,07,26,03,22,18.60
2009,07,26,03,23,18.60
2009,07,26,03,24,18.60
2009,07,26,03,25,18.70
2009,07,26,03,26,18.70
2009,07,26,03,27,18.70
2009,07,26,03,28,18.80
2009,07,26,03,29,18.80
2009,07,26,03,30,18.90
2009,07,26,03,31,18.90
2009,07,26,03,32,18.90
2009,07,26,03,33,18.90
2009,07,26,03,34,18.90
2009,07,26,03,35,19.00
2009,07,26,03,36,19.10
2009,07,26,03,37,19.10
2009,07,26,03,38,19.10
2009,07,26,03,39,19.10
2009,07,26,03,40,19.10
2009,07,26,03,41,19.10
2009,07,26,03,42,19.10
2009,07,26,03,43,19.10
2009,07,26,03,44,19.10
2009,07,26,03,45,19.10
2009,07,26,03,46,19.10
2009,07,26,03,47,19.10
2009,07,26,03,48,19.10
2009,07,26,03,49,19.10
2009,07,26,03,50,19.10
2009,07,26,03,51,19.10
2009,07,26,03,52,19.10
2009,07,26,03,53,19.10
2009,07,26,03,54,19.10
2009,07,26,03,55,19.10
2009,07,26,03,56,18.90
2009,07,26,03,57,18.90
2009,07,26,03,58,18.90
2009,07,26,03,59,18.90
2009,07,26,04,00,18.90
2009,07,26,04,01,18.90
2009,07,26,04,02,18.90
2009,07,26,04,03,18.90
2009,07,26,04,04,18.90
2009,07,26,04,05,18.80
2009,07,26,04,06,18.70
2009,07,26,04,07,18.60
2009,07,26,04,08,18.40
2009,07,26,04,09,18.30
2009,07,26,04,10,18.00
2009,07,26,04,11,17.70
2009,07,26,04,12,17.40
2009,07,26,04,13,17.10
2009,07,26,04,14,16.80
2009,07,26,04,15,16.60
2009,07,26,04,16,16.40
2009,07,26,04,17,16.30
2009,07,26,04,18,16.10
2009,07,26,04,19,16.00
2009,07,26,04,20,15.80
2009,07,26,04,21,15.80
2009,07,26,04,22,15.80
2009,07,26,04,23,15.70
2009,07,26,04,24,15.60
2009,07,26,04,25,15.60
2009,07,26,04,26,15.50
2009,07,26,04,27,15.50
2009,07,26,04,28,15.40
2009,07,26,04,29,15.40
2009,07,26,04,30,15.30
2009,07,26,04,31,15.30
2009,07,26,04,32,15.30
2009,07,26,04,33,15.30
2009,07,26,04,34,15.30
2009,07,26,04,35,15.30
2009,07,26,04,36,15.20
2009,07,26,04,37,15.20
2009,07,26,04,38,15.10
2009,07,26,04,39,15.10
2009,07,26,04,40,15.00
2009,07,26,04,41,15.00
2009,07,26,04,42,15.00
2009,07,26,04,43,15.00
2009,07,26,04,44,15.00
2009,07,26,04,45,15.00
2009,07,26,04,46,15.00
2009,07,26,04,47,15.00
2009,07,26,04,48,15.00
2009,07,26,04,49,15.00
2009,07,26,04,50,14.90
2009,07,26,04,51,14.90
2009,07,26,04,52,14.90
2009,07,26,04,53,14.90
2009,07,26,04,54,14.90
2009,07,26,04,55,14.90
2009,07,26,04,56,14.90
2009,07,26,04,57,14.90
2009,07,26,04,58,15.00
2009,07,26,04,59,15.00
2009,07,26,05,00,15.00
2009,07,26,05,01,15.00
2009,07,26,05,02,15.00
2009,07,26,05,03,15.00
2009,07,26,05,04,15.00
2009,07,26,05,05,15.00
2009,07,26,05,06,15.00
2009,07,26,05,07,15.10
2009,07,26,05,08,15.10
2009,07,26,05,09,15.10
2009,07,26,05,10,15.10
2009,07,26,05,11,15.20
2009,07,26,05,12,15.20
2009,07,26,05,13,15.20
2009,07,26,05,14,15.20
2009,07,26,05,15,15.20
2009,07,26,05,16,15.30
2009,07,26,05,17,15.30
2009,07,26,05,18,15.30
2009,07,26,05,19,15.30
2009,07,26,05,20,15.30
2009,07,26,05,21,15.30
2009,07,26,05,22,15.30
2009,07,26,05,23,15.20
2009,07,26,05,24,15.20
2009,07,26,05,25,15.10
2009,07,26,05,26,15.10
2009,07,26,05,27,15.10
2009,07,26,05,28,15.10
2009,07,26,05,29,15.00
2009,07,26,05,30,15.10
2009,07,26,05,31,15.10
2009,07,26,05,32,15.10
2009,07,26,05,33,15.10
2009,07,26,05,34,15.10
2009,07,26,05,35,15.10
2009,07,26,05,36,15.20
2009,07,26,05,37,15.20
2009,07,26,05,38,15.20
2009,07,26,05,39,15.20
2009,07,26,05,40,15.20
2009,07,26,05,41,15.30
2009,07,26,05,42,15.30
2009,07,26,05,43,15.30
2009,07,26,05,44,15.30
2009,07,26,05,45,15.30
2009,07,26,05,46,15.20
2009,07,26,05,47,15.20
2009,07,26,05,48,15.20
2009,07,26,05,49,15.20
2009,07,26,05,50,15.20
2009,07,26,05,51,15.20
2009,07,26,05,52,15.20
2009,07,26,05,53,15.20
2009,07,26,05,54,15.30
2009,07,26,05,55,15.30
2009,07,26,05,56,15.30
2009,07,26,05,57,15.30
2009,07,26,05,58,15.30
2009,07,26,05,59,15.30
2009,07,26,06,00,15.30
2009,07,26,06,01,15.30
2009,07,26,06,02,15.30
2009,07,26,06,03,15.30
2009,07,26,06,04,15.30
2009,07,26,06,05,15.30
2009,07,26,06,06,15.30
2009,07,26,06,07,15.30
2009,07,26,06,08,15.30
2009,07,26,06,09,15.30
2009,07,26,06,10,15.30
2009,07,26,06,11,15.30
2009,07,26,06,12,15.30
2009,07,26,06,13,15.40
2009,07,26,06,14,15.40
2009,07,26,06,15,15.40
2009,07,26,06,16,15.40
2009,07,26,06,17,15.40
2009,07,26,06,18,15.50
2009,07,26,06,19,15.50
2009,07,26,06,20,15.50
2009,07,26,06,21,15.50
2009,07,26,06,22,15.60
2009,07,26,06,23,15.60
2009,07,26,06,24,15.70
2009,07,26,06,25,15.70
2009,07,26,06,26,15.70
2009,07,26,06,27,15.80
2009,07,26,06,28,15.80
2009,07,26,06,29,15.80
2009,07,26,06,30,15.80
2009,07,26,06,31,15.90
2009,07,26,06,32,16.10
2009,07,26,06,33,16.10
2009,07,26,06,34,16.10
2009,07,26,06,35,16.20
2009,07,26,06,36,16.20
2009,07,26,06,37,16.20
2009,07,26,06,38,16.20
2009,07,26,06,39,16.20
2009,07,26,06,40,16.30
2009,07,26,06,41,16.30
2009,07,26,06,42,16.30
2009,07,26,06,43,16.40
2009,07,26,06,44,16.40
2009,07,26,06,45,16.50
2009,07,26,06,46,16.60
2009,07,26,06,47,16.60
2009,07,26,06,48,16.60
2009,07,26,06,49,16.70
2009,07,26,06,50,16.70
2009,07,26,06,51,16.70
2009,07,26,06,52,16.80
2009,07,26,06,53,16.80
2009,07,26,06,54,16.90
2009,07,26,06,55,17.00
2009,07,26,06,56,17.00
2009,07,26,06,57,17.00
2009,07,26,06,58,17.10
2009,07,26,06,59,17.20
2009,07,26,07,00,17.30
2009,07,26,07,01,17.30
2009,07,26,07,02,17.30
2009,07,26,07,03,17.30
2009,07,26,07,04,17.40
2009,07,26,07,05,17.40
2009,07,26,07,06,17.40
2009,07,26,07,07,17.50
2009,07,26,07,08,17.50
2009,07,26,07,09,17.50
2009,07,26,07,10,17.60
2009,07,26,07,11,17.60
2009,07,26,07,12,17.60
2009,07,26,07,13,17.70
2009,07,26,07,14,17.80
2009,07,26,07,15,17.70
2009,07,26,07,16,17.50
2009,07,26,07,17,17.50
2009,07,26,07,18,17.30
2009,07,26,07,19,17.30
2009,07,26,07,20,17.20
2009,07,26,07,21,17.10
2009,07,26,07,22,17.00
2009,07,26,07,23,17.00
2009,07,26,07,24,17.00
2009,07,26,07,25,16.90
2009,07,26,07,26,16.70
2009,07,26,07,27,16.50
2009,07,26,07,28,16.40
2009,07,26,07,29,16.40
2009,07,26,07,30,16.50
2009,07,26,07,31,16.60
2009,07,26,07,32,16.60
2009,07,26,07,33,16.70
2009,07,26,07,34,16.80
2009,07,26,07,35,16.90
2009,07,26,07,36,16.90
2009,07,26,07,37,16.90
2009,07,26,07,38,16.80
2009,07,26,07,39,16.70
2009,07,26,07,40,16.70
2009,07,26,07,41,16.70
2009,07,26,07,42,16.70
2009,07,26,07,43,16.70
2009,07,26,07,44,16.70
2009,07,26,07,45,16.70
2009,07,26,07,46,16.80
2009,07,26,07,47,16.90
2009,07,26,07,48,17.00
2009,07,26,07,49,17.00
2009,07,26,07,50,17.20
2009,07,26,07,51,17.30
2009,07,26,07,52,17.30
2009,07,26,07,53,17.30
2009,07,26,07,54,17.30
2009,07,26,07,55,17.30
2009,07,26,07,56,17.30
2009,07,26,07,57,17.40
2009,07,26,07,58,17.40
2009,07,26,07,59,17.40
2009,07,26,08,00,17.40
2009,07,26,08,01,17.50
2009,07,26,08,02,17.50
2009,07,26,08,03,17.60
2009,07,26,08,04,17.70
2009,07,26,08,05,17.80
2009,07,26,08,06,17.90
2009,07,26,08,07,18.00
2009,07,26,08,08,18.10
2009,07,26,08,09,18.20
2009,07,26,08,10,18.30
2009,07,26,08,11,18.40
2009,07,26,08,12,18.50
2009,07,26,08,13,18.60
2009,07,26,08,14,18.60
2009,07,26,08,15,18.80
2009,07,26,08,16,18.90
2009,07,26,08,17,18.90
2009,07,26,08,18,18.90
2009,07,26,08,19,18.90
2009,07,26,08,20,18.90
2009,07,26,08,21,18.80
2009,07,26,08,22,18.70
2009,07,26,08,23,18.70
2009,07,26,08,24,18.70
2009,07,26,08,25,18.70
2009,07,26,08,26,18.70
2009,07,26,08,27,18.70
2009,07,26,08,28,18.80
2009,07,26,08,29,18.90
2009,07,26,08,30,18.90
2009,07,26,08,31,19.10
2009,07,26,08,32,19.20
2009,07,26,08,33,19.30
2009,07,26,08,34,19.50
2009,07,26,08,35,19.70
2009,07,26,08,36,19.90
2009,07,26,08,37,20.10
2009,07,26,08,38,20.20
2009,07,26,08,39,20.30
2009,07,26,08,40,20.40
2009,07,26,08,41,20.40
2009,07,26,08,42,20.30
2009,07,26,08,43,20.30
2009,07,26,08,44,20.20
2009,07,26,08,45,20.20
2009,07,26,08,46,20.30
2009,07,26,08,47,20.30
2009,07,26,08,48,20.30
2009,07,26,08,49,20.30
2009,07,26,08,50,20.30
2009,07,26,08,51,20.20
2009,07,26,08,52,20.20
2009,07,26,08,53,20.10
2009,07,26,08,54,20.00
2009,07,26,08,55,19.90
2009,07,26,08,56,19.90
2009,07,26,08,57,19.80
2009,07,26,08,58,19.80
2009,07,26,08,59,19.90
2009,07,26,09,00,19.80
2009,07,26,09,01,19.70
2009,07,26,09,02,19.60
2009,07,26,09,03,19.50
2009,07,26,09,04,19.50
2009,07,26,09,05,19.40
2009,07,26,09,06,19.40
2009,07,26,09,07,19.40
2009,07,26,09,08,19.50
2009,07,26,09,09,19.50
2009,07,26,09,10,19.60
2009,07,26,09,11,19.80
2009,07,26,09,12,19.90
2009,07,26,09,13,19.90
2009,07,26,09,14,19.90
2009,07,26,09,15,19.90
2009,07,26,09,16,19.90
2009,07,26,09,17,19.90
2009,07,26,09,18,19.90
2009,07,26,09,19,19.90
2009,07,26,09,20,19.90
2009,07,26,09,21,19.80
2009,07,26,09,22,19.70
2009,07,26,09,23,19.80
2009,07,26,09,24,19.90
2009,07,26,09,25,19.90
2009,07,26,09,26,20.00
2009,07,26,09,27,20.20
2009,07,26,09,28,20.20
2009,07,26,09,29,20.30
2009,07,26,09,30,20.20
2009,07,26,09,31,20.20
2009,07,26,09,32,20.20
2009,07,26,09,33,20.20
2009,07,26,09,34,20.20
2009,07,26,09,35,20.10
2009,07,26,09,36,20.10
2009,07,26,09,37,20.10
2009,07,26,09,38,20.20
2009,07,26,09,39,20.20
2009,07,26,09,40,20.20
2009,07,26,09,41,20.30
2009,07,26,09,42,20.30
2009,07,26,09,43,20.40
2009,07,26,09,44,20.40
2009,07,26,09,45,20.40
2009,07,26,09,46,20.20
2009,07,26,09,47,20.00
2009,07,26,09,48,19.70
2009,07,26,09,49,19.40
2009,07,26,09,50,19.20
2009,07,26,09,51,19.00
2009,07,26,09,52,18.80
2009,07,26,09,53,18.70
2009,07,26,09,54,18.60
2009,07,26,09,55,18.50
2009,07,26,09,56,18.50
2009,07,26,09,57,18.60
2009,07,26,09,58,18.70
2009,07,26,09,59,18.90
2009,07,26,10,00,19.10
2009,07,26,10,01,19.40
2009,07,26,10,02,19.50
2009,07,26,10,03,19.70
2009,07,26,10,04,19.90
2009,07,26,10,05,19.90
2009,07,26,10,06,19.70
2009,07,26,10,07,19.60
2009,07,26,10,08,19.30
2009,07,26,10,09,19.20
2009,07,26,10,10,19.10
2009,07,26,10,11,19.00
2009,07,26,10,12,18.90
2009,07,26,10,13,18.80
2009,07,26,10,14,18.80
2009,07,26,10,15,18.90
2009,07,26,10,16,19.00
2009,07,26,10,17,19.20
2009,07,26,10,18,19.40
2009,07,26,10,19,19.50
2009,07,26,10,20,19.50
2009,07,26,10,21,19.50
2009,07,26,10,22,19.50
2009,07,26,10,23,19.40
2009,07,26,10,24,19.40
2009,07,26,10,25,19.20
2009,07,26,10,26,19.20
2009,07,26,10,27,19.20
2009,07,26,10,28,19.20
2009,07,26,10,29,19.20
2009,07,26,10,30,19.20
2009,07,26,10,31,19.20
2009,07,26,10,32,19.20
2009,07,26,10,33,19.30
2009,07,26,10,34,19.30
2009,07,26,10,35,19.50
2009,07,26,10,36,19.60
2009,07,26,10,37,19.70
2009,07,26,10,38,19.70
2009,07,26,10,39,19.80
2009,07,26,10,40,19.90
2009,07,26,10,41,19.90
2009,07,26,10,42,19.80
2009,07,26,10,43,19.60
2009,07,26,10,44,19.40
2009,07,26,10,45,19.30
2009,07,26,10,46,19.30
2009,07,26,10,47,19.40
2009,07,26,10,48,19.50
2009,07,26,10,49,19.50
2009,07,26,10,50,19.60
2009,07,26,10,51,19.70
2009,07,26,10,52,19.80
2009,07,26,10,53,19.80
2009,07,26,10,54,19.90
2009,07,26,10,55,20.00
2009,07,26,10,56,20.10
2009,07,26,10,57,20.10
2009,07,26,10,58,20.10
2009,07,26,10,59,20.00
2009,07,26,11,00,19.90
2009,07,26,11,01,19.70
2009,07,26,11,02,19.40
2009,07,26,11,03,19.20
2009,07,26,11,04,19.00
2009,07,26,11,05,18.80
2009,07,26,11,06,18.80
2009,07,26,11,07,18.80
2009,07,26,11,08,18.70
2009,07,26,11,09,18.60
2009,07,26,11,10,18.60
2009,07,26,11,11,18.70
2009,07,26,11,12,18.80
2009,07,26,11,13,18.90
2009,07,26,11,14,18.80
2009,07,26,11,15,18.80
2009,07,26,11,16,18.80
2009,07,26,11,17,18.80
2009,07,26,11,18,18.70
2009,07,26,11,19,18.60
2009,07,26,11,20,18.60
2009,07,26,11,21,18.60
2009,07,26,11,22,18.60
2009,07,26,11,23,18.70
2009,07,26,11,24,18.80
2009,07,26,11,25,18.80
2009,07,26,11,26,18.90
2009,07,26,11,27,18.90
2009,07,26,11,28,18.90
2009,07,26,11,29,18.90
2009,07,26,11,30,18.90
2009,07,26,11,31,19.10
2009,07,26,11,32,19.10
2009,07,26,11,33,19.10
2009,07,26,11,34,19.10
2009,07,26,11,35,19.10
2009,07,26,11,36,19.20
2009,07,26,11,37,19.20
2009,07,26,11,38,19.30
2009,07,26,11,39,19.30
2009,07,26,11,40,19.40
2009,07,26,11,41,19.50
2009,07,26,11,42,19.60
2009,07,26,11,43,19.80
2009,07,26,11,44,19.80
2009,07,26,11,45,19.80
2009,07,26,11,46,19.90
2009,07,26,11,47,20.00
2009,07,26,11,48,20.10
2009,07,26,11,49,20.10
2009,07,26,11,50,20.10
2009,07,26,11,51,20.10
2009,07,26,11,52,20.10
2009,07,26,11,53,20.10
2009,07,26,11,54,20.10
2009,07,26,11,55,20.20
2009,07,26,11,56,20.20
2009,07,26,11,57,20.30
2009,07,26,11,58,20.30
2009,07,26,11,59,20.30
2009,07,26,12,00,20.20
2009,07,26,12,01,20.20
2009,07,26,12,02,20.10
2009,07,26,12,03,20.00
2009,07,26,12,04,19.80
2009,07,26,12,05,19.60
2009,07,26,12,06,19.60
2009,07,26,12,07,19.50
2009,07,26,12,08,19.50
2009,07,26,12,09,19.60
2009,07,26,12,10,19.70
2009,07,26,12,11,19.70
2009,07,26,12,12,19.70
2009,07,26,12,13,19.60
2009,07,26,12,14,19.60
2009,07,26,12,15,19.70
2009,07,26,12,16,19.70
2009,07,26,12,17,19.60
2009,07,26,12,18,19.70
2009,07,26,12,19,19.80
2009,07,26,12,20,19.90
2009,07,26,12,21,19.90
2009,07,26,12,22,19.90
2009,07,26,12,23,20.00
2009,07,26,12,24,20.00
2009,07,26,12,25,19.90
2009,07,26,12,26,19.80
2009,07,26,12,27,19.80
2009,07,26,12,28,19.80
2009,07,26,12,29,19.90
2009,07,26,12,30,19.90
2009,07,26,12,31,19.90
2009,07,26,12,32,19.90
2009,07,26,12,33,19.90
2009,07,26,12,34,19.90
2009,07,26,12,35,20.00
2009,07,26,12,36,20.20
2009,07,26,12,37,20.30
2009,07,26,12,38,20.40
2009,07,26,12,39,20.40
2009,07,26,12,40,20.40
2009,07,26,12,41,20.50
2009,07,26,12,42,20.50
2009,07,26,12,43,20.60
2009,07,26,12,44,20.70
2009,07,26,12,45,20.70
2009,07,26,12,46,20.70
2009,07,26,12,47,20.70
2009,07,26,12,48,20.80
2009,07,26,12,49,20.90
2009,07,26,12,50,21.00
2009,07,26,12,51,21.00
2009,07,26,12,52,21.10
2009,07,26,12,53,21.20
2009,07,26,12,54,21.30
2009,07,26,12,55,21.30
2009,07,26,12,56,21.30
2009,07,26,12,57,21.30
2009,07,26,12,58,21.40
2009,07,26,12,59,21.50
2009,07,26,13,00,21.70
2009,07,26,13,01,21.90
2009,07,26,13,02,22.10
2009,07,26,13,03,22.20
2009,07,26,13,04,22.30
2009,07,26,13,05,22.50
2009,07,26,13,06,22.60
2009,07,26,13,07,22.60
2009,07,26,13,08,22.50
2009,07,26,13,09,22.50
2009,07,26,13,10,22.50
2009,07,26,13,11,22.50
2009,07,26,13,12,22.60
2009,07,26,13,13,22.50
2009,07,26,13,14,22.50
2009,07,26,13,15,22.50
2009,07,26,13,16,22.50
2009,07,26,13,17,22.50
2009,07,26,13,18,22.50
2009,07,26,13,19,22.50
2009,07,26,13,20,22.50
2009,07,26,13,21,22.40
2009,07,26,13,22,22.40
2009,07,26,13,23,22.40
2009,07,26,13,24,22.40
2009,07,26,13,25,22.40
2009,07,26,13,26,22.40
2009,07,26,13,27,22.40
2009,07,26,13,28,22.40
2009,07,26,13,29,22.30
2009,07,26,13,30,22.30
2009,07,26,13,31,22.30
2009,07,26,13,32,22.30
2009,07,26,13,33,22.20
2009,07,26,13,34,22.10
2009,07,26,13,35,21.90
2009,07,26,13,36,21.70
2009,07,26,13,37,21.50
2009,07,26,13,38,21.30
2009,07,26,13,39,21.20
2009,07,26,13,40,21.00
2009,07,26,13,41,21.00
2009,07,26,13,42,20.90
2009,07,26,13,43,20.80
2009,07,26,13,44,20.70
2009,07,26,13,45,20.60
2009,07,26,13,46,20.50
2009,07,26,13,47,20.50
2009,07,26,13,48,20.60
2009,07,26,13,49,20.80
2009,07,26,13,50,20.90
2009,07,26,13,51,21.00
2009,07,26,13,52,21.00
2009,07,26,13,53,21.10
2009,07,26,13,54,21.40
2009,07,26,13,55,21.60
2009,07,26,13,56,21.80
2009,07,26,13,57,21.90
2009,07,26,13,58,22.10
2009,07,26,13,59,22.10
2009,07,26,14,00,22.10
2009,07,26,14,01,22.10
2009,07,26,14,02,22.10
2009,07,26,14,03,22.10
2009,07,26,14,04,22.10
2009,07,26,14,05,22.10
2009,07,26,14,06,22.00
2009,07,26,14,07,22.00
2009,07,26,14,08,22.00
2009,07,26,14,09,22.10
2009,07,26,14,10,22.10
2009,07,26,14,11,22.00
2009,07,26,14,12,22.00
2009,07,26,14,13,22.20
2009,07,26,14,14,22.20
2009,07,26,14,15,22.20
2009,07,26,14,16,22.20
2009,07,26,14,17,22.10
2009,07,26,14,18,22.10
2009,07,26,14,19,22.10
2009,07,26,14,20,22.20
2009,07,26,14,21,22.40
2009,07,26,14,22,22.50
2009,07,26,14,23,22.60
2009,07,26,14,24,22.80
2009,07,26,14,25,22.90
2009,07,26,14,26,23.00
2009,07,26,14,27,23.00
2009,07,26,14,28,22.90
2009,07,26,14,29,22.70
2009,07,26,14,30,22.70
2009,07,26,14,31,22.70
2009,07,26,14,32,22.70
2009,07,26,14,33,22.70
2009,07,26,14,34,22.70
2009,07,26,14,35,22.60
2009,07,26,14,36,22.60
2009,07,26,14,37,22.50
2009,07,26,14,38,22.60
2009,07,26,14,39,22.70
2009,07,26,14,40,22.70
2009,07,26,14,41,22.80
2009,07,26,14,42,22.80
2009,07,26,14,43,22.80
2009,07,26,14,44,22.80
2009,07,26,14,45,22.80
2009,07,26,14,46,22.80
2009,07,26,14,47,22.80
2009,07,26,14,48,22.90
2009,07,26,14,49,23.00
2009,07,26,14,50,23.00
2009,07,26,14,51,23.10
2009,07,26,14,52,23.10
2009,07,26,14,53,23.00
2009,07,26,14,54,22.90
2009,07,26,14,55,22.90
2009,07,26,14,56,22.90
2009,07,26,14,57,23.00
2009,07,26,14,58,23.00
2009,07,26,14,59,22.90
2009,07,26,15,00,22.90
2009,07,26,15,01,22.70
2009,07,26,15,02,22.60
2009,07,26,15,03,22.50
2009,07,26,15,04,22.20
2009,07,26,15,05,22.00
2009,07,26,15,06,22.00
2009,07,26,15,07,22.00
2009,07,26,15,08,22.00
2009,07,26,15,09,21.90
2009,07,26,15,10,21.90
2009,07,26,15,11,21.70
2009,07,26,15,12,21.70
2009,07,26,15,13,21.70
2009,07,26,15,14,21.60
2009,07,26,15,15,21.60
2009,07,26,15,16,21.60
2009,07,26,15,17,21.60
2009,07,26,15,18,21.50
2009,07,26,15,19,21.40
2009,07,26,15,20,21.40
2009,07,26,15,21,21.30
2009,07,26,15,22,21.30
2009,07,26,15,23,21.30
2009,07,26,15,24,21.20
2009,07,26,15,25,21.30
2009,07,26,15,26,21.30
2009,07,26,15,27,21.30
2009,07,26,15,28,21.20
2009,07,26,15,29,21.10
2009,07,26,15,30,21.10
2009,07,26,15,31,21.10
2009,07,26,15,32,21.10
2009,07,26,15,33,21.10
2009,07,26,15,34,21.10
2009,07,26,15,35,21.00
2009,07,26,15,36,21.00
2009,07,26,15,37,21.00
2009,07,26,15,38,20.90
2009,07,26,15,39,20.90
2009,07,26,15,40,20.90
2009,07,26,15,41,21.00
2009,07,26,15,42,21.00
2009,07,26,15,43,21.20
2009,07,26,15,44,21.30
2009,07,26,15,45,21.50
2009,07,26,15,46,21.60
2009,07,26,15,47,21.60
2009,07,26,15,48,21.60
2009,07,26,15,49,21.60
2009,07,26,15,50,21.60
2009,07,26,15,51,21.60
2009,07,26,15,52,21.60
2009,07,26,15,53,21.70
2009,07,26,15,54,21.70
2009,07,26,15,55,21.80
2009,07,26,15,56,21.80
2009,07,26,15,57,21.90
2009,07,26,15,58,21.90
2009,07,26,15,59,21.90
2009,07,26,16,00,22.00
2009,07,26,16,01,22.00
2009,07,26,16,02,22.00
2009,07,26,16,03,22.20
2009,07,26,16,04,22.20
2009,07,26,16,05,22.20
2009,07,26,16,06,22.20
2009,07,26,16,07,22.20
2009,07,26,16,08,22.20
2009,07,26,16,09,22.20
2009,07,26,16,10,22.20
2009,07,26,16,11,22.30
2009,07,26,16,12,22.30
2009,07,26,16,13,22.30
2009,07,26,16,14,22.30
2009,07,26,16,15,22.40
2009,07,26,16,16,22.40
2009,07,26,16,17,22.40
2009,07,26,16,18,22.30
2009,07,26,16,19,22.30
2009,07,26,16,20,22.40
2009,07,26,16,21,22.40
2009,07,26,16,22,22.30
2009,07,26,16,23,22.10
2009,07,26,16,24,22.00
2009,07,26,16,25,21.80
2009,07,26,16,26,21.60
2009,07,26,16,27,21.50
2009,07,26,16,28,21.40
2009,07,26,16,29,21.40
2009,07,26,16,30,21.60
2009,07,26,16,31,21.60
2009,07,26,16,32,21.60
2009,07,26,16,33,21.70
2009,07,26,16,34,21.80
2009,07,26,16,35,21.90
2009,07,26,16,36,21.90
2009,07,26,16,37,21.90
2009,07,26,16,38,22.00
2009,07,26,16,39,22.00
2009,07,26,16,40,22.00
2009,07,26,16,41,22.00
2009,07,26,16,42,22.00
2009,07,26,16,43,21.90
2009,07,26,16,44,21.80
2009,07,26,16,45,21.70
2009,07,26,16,46,21.80
2009,07,26,16,47,21.80
2009,07,26,16,48,21.90
2009,07,26,16,49,21.90
2009,07,26,16,50,22.00
2009,07,26,16,51,22.10
2009,07,26,16,52,22.20
2009,07,26,16,53,22.20
2009,07,26,16,54,22.20
2009,07,26,16,55,22.20
2009,07,26,16,56,22.20
2009,07,26,16,57,22.30
2009,07,26,16,58,22.20
2009,07,26,16,59,22.20
2009,07,26,17,00,22.20
2009,07,26,17,01,22.10
2009,07,26,17,02,22.10
2009,07,26,17,03,22.20
2009,07,26,17,04,22.20
2009,07,26,17,05,22.30
2009,07,26,17,06,22.30
2009,07,26,17,07,22.50
2009,07,26,17,08,22.60
2009,07,26,17,09,22.80
2009,07,26,17,10,22.90
2009,07,26,17,11,23.00
2009,07,26,17,12,23.10
2009,07,26,17,13,23.20
2009,07,26,17,14,23.30
2009,07,26,17,15,23.30
2009,07,26,17,16,23.30
2009,07,26,17,17,23.30
2009,07,26,17,18,23.30
2009,07,26,17,19,23.30